This demonstration page uses our WeatherBlox Daily Observations layout. Learn more.

38.89511, -77.03637

Hourly Observations for April 15, 2015

Temp ( °F °C ) Dew Point ( °F °C ) Humidity (%) Winds ( mph kmh ) Pressure ( in mb ) Visibility ( mi km ) Precip ( " mm )
12:52 am 00:52 Cloudy 56 13.3 47 8.3 72 72 N 5 7 30.15 1021 10 16.0934 0 0.0254
1:52 am 01:52 Cloudy 57 13.9 46 7.8 67 67 NNE 7 11 30.14 1021 10 16.0934 0 0.0254
2:52 am 02:52 Cloudy 56 13.3 47 8.3 72 72 NNW 5 7 30.16 1021 10 16.0934 0 0
3:52 am 03:52 Cloudy 55 12.8 46 7.8 72 72 NNW 6 9 30.15 1021 10 16.0934 0 0
4:52 am 04:52 Partly Cloudy 53 11.7 44 6.7 72 72 NW 6 9 30.16 1021 10 16.0934 0 0
5:52 am 05:52 Partly Cloudy 53 11.7 43 6.1 69 69 NNW 6 9 30.17 1022 10 16.0934 0 0
6:52 am 06:52 Mostly Cloudy 53 11.7 42 5.6 66 66 NNW 9 15 30.2 1023 10 16.0934 0 0
7:52 am 07:52 Cloudy 55 12.8 42 5.6 62 62 N 8 13 30.23 1024 10 16.0934 0 0
8:52 am 08:52 Cloudy 58 14.4 34 1.1 41 41 NNE 13 20 30.24 1024 10 16.0934 0 0
9:52 am 09:52 Cloudy 60 15.6 34 1.1 38 38 NNE 10 17 30.26 1025 10 16.0934 0 0
10:52 am 10:52 Cloudy 62 16.7 35 1.7 37 37 NNE 8 13 30.27 1025 10 16.0934 0 0
11:52 am 11:52 Cloudy 63 17.2 36 2.2 37 37 NNE 9 15 30.27 1025 10 16.0934 0 0
12:52 pm 12:52 Cloudy 65 18.3 35 1.7 33 33 NNE 9 15 30.27 1025 10 16.0934 0 0
1:52 pm 13:52 Cloudy 67 19.4 35 1.7 31 31 N 10 17 30.27 1025 10 16.0934 0 0
2:52 pm 14:52 Cloudy 66 18.9 33 0.6 29 29 NNW 10 17 30.25 1024 10 16.0934 0 0
3:52 pm 15:52 Mostly Cloudy 68 20 33 0.6 27 27 N 12 19 30.26 1025 10 16.0934 0 0
4:52 pm 16:52 Cloudy 67 19.4 33 0.6 28 28 N 13 20 30.24 1024 10 16.0934 0 0
5:52 pm 17:52 Cloudy 66 18.9 32 0 28 28 NNE 9 15 30.26 1025 10 16.0934 0 0
6:52 pm 18:52 Cloudy 65 18.3 34 1.1 32 32 N 5 7 30.28 1026 10 16.0934 0 0
7:52 pm 19:52 Cloudy 63 17.2 31 -0.6 30 30 N 3 6 30.29 1026 10 16.0934 0 0
8:52 pm 20:52 Cloudy 63 17.2 31 -0.6 30 30 N 5 7 30.31 1026 10 16.0934 0 0
9:52 pm 21:52 Cloudy 60 15.6 39 3.9 46 46 S 6 9 30.34 1027 10 16.0934 0 0
10:52 pm 22:52 Cloudy 60 15.6 35 1.7 39 39 Calm 30.34 1027 10 16.0934 0 0
11:52 pm 23:52 Cloudy 59 15 35 1.7 41 41 Calm 30.35 1028 10 16.0934 0 0

Powered by AerisWeather